sat.trackr.live / text

‹ back to catalog

SHIYAN-20B (SY-20B)

NORAD 54700 · 2022-169B

PAYLOAD ACTIVE UNKNOWN

§ Identity

Operator
Country
PRC
Launch date
2022-12-12
Launch site
JSC
Launch vehicle
Mass (kg)
RCS (m²)

External: N2YO · Heavens-Above · Gunter

§ Orbital elements

Epoch: 2026-09-20T23:40:41.749248Z

Period
100.73 min
Inclination
59.9956°
Eccentricity
0.0011990
Mean motion
14.29565461 rev/d
Perigee alt
784.6 km
Apogee alt
801.8 km
Semi-major
7,171.3 km
B*
4.1590e-5
RAAN
283.9006°
Arg perigee
345.5057°
Mean anomaly
14.5633°
Rev number
19,705

§ Raw data

SHIYAN-20B (SY-20B)1 54700U 22169B   26263.98659432 -.00000030  00000+0  41590-4 0  99972 54700  59.9956 283.9006 0011990 345.5057  14.5633 14.29565461197055

JSON: /api/v1/satellites/54700 · /tle

For live sub-satellite position, see the globe view (requires WebGL).

§ Visibility from observer

Set your observer location to see the next 7 days of passes ≥ 10°. The values pass through the URL so the page stays shareable.

No JS? Fill the form by hand. The geolocation button needs JavaScript.